Miscellaneous Local Product
Issued by NWS North Platte, NE

Home | Current Version | Previous Version | Graphics & Text | Print | Product List | Glossary On
Versions: 1 2 3 4 5 6 7 8 9 10 11 12 13 14 15 16 17 18 19 20 21 22 23 24 25 26 27 28 29 30 31 32 33 34 35 36 37 38 39 40 41 42 43 44 45 46 47 48 49 50
000
AXUS43 KLBF 210810
MISLBF


WESTERN AND NORTH CENTRAL NEBRASKA HOURLY WEATHER ROUNDUP
NATIONAL WEATHER SERVICE NORTH PLATTE NE
300 AM CDT SAT OCT 21 2017

NOTE: "FAIR" INDICATES FEW OR NO CLOUDS BELOW 12,000 FEET WITH NO
SIGNIFICANT WEATHER AND/OR OBSTRUCTIONS TO VISIBILITY.

NOTE: STATIONS NOT REPORTING VARIABLES SUCH AS SKY/WEATHER OR
PRESSURE ARE PROVIDED BY RAWS AND APRS NETWORKS AND ARE NOT UNDER
NATIONAL WEATHER SERVICE QUALITY CONTROL.

...OBSERVATIONS IN AND NEAR THE EASTERN PANHANDLE OF NEBRASKA...

CITY           SKY/WX    TMP DP  RH WIND       PRES   REMARKS
PINE RIDGE     LGT RAIN  62  37  39 W17       29.55R
GORDON         CLOUDY    63  34  34 NW21G29   29.51R
CHADRON        CLOUDY    59  25  27 W21G33    29.61R
ALLIANCE       CLOUDY    55  36  48 NW20G30   29.55R
SIDNEY         CLOUDY    50  33  52 NW26G37   29.60R
CRESCENT LAKE    N/A     58  36  44 NW16G23     N/A
$$

...OBSERVATIONS IN NORTHERN NEBRASKA AND FAR SOUTHERN SOUTH DAKOTA...

CITY           SKY/WX    TMP DP  RH WIND       PRES   REMARKS
WINNER         FAIR      66  57  72 SW15G28   29.42R
VALENTINE      CLEAR     59  53  80 S12       29.46R
THEDFORD       PTCLDY    61  56  85 W17G29    29.49R
AINSWORTH      CLEAR     60  58  91 S13G20    29.43F
O`NEILL        MOCLDY    65  59  83 S16G22    29.48S
ORD            CLOUDY    65  59  81 S14G22    29.48F
BROKEN BOW     CLEAR     64  58  80 S12       29.46F
VALENTINE NWR    N/A     57  54  89 S9          N/A
HALSEY           N/A     61  56  84 S8G15       N/A
BUTTE            N/A     64  58  82 S18G26      N/A
CHAMBERS         N/A     63  59  88 S3G12       N/A
EWING            N/A     66  60  80 S9          N/A
$$

...OBSERVATIONS IN SOUTHWEST NEBRASKA AND FAR NORTHEAST COLORADO...

CITY           SKY/WX    TMP DP  RH WIND       PRES   REMARKS
HOLYOKE        FAIR      59  37  44 NW14G33   29.52R
IMPERIAL       CLOUDY    56  43  61 W10       29.48R
OGALLALA       CLOUDY    51  47  85 W5        29.48R
NORTH PLATTE   CLOUDY    61  56  83 E10       29.43F
MCCOOK         CLOUDY    65  54  67 S16G31    29.46R
LEXINGTON      CLEAR     65  58  77 S18G25    29.47F
STAPLETON        N/A     58  55  89 SE3         N/A
GOTHENBURG       N/A     65  55  69 SE9         N/A
CALLAWAY         N/A     61  58  88 S16         N/A
$$

...OBSERVATIONS IN CENTRAL LINCOLN COUNTY AREA...

CITY           SKY/WX    TMP DP  RH WIND       PRES   REMARKS
N.P. AIRPORT   CLOUDY    61  56  83 E10       29.43F
N.P. DOWNTOWN    N/A     61  55  82 CALM        N/A
N.P. SOUTHEAST   N/A     62  56  80 SE5G13      N/A
N.P. HILLCREST   N/A     62  56  82 SE12        N/A
$$

...SOME OBSERVATIONS FROM AROUND THE REGION...

CITY           SKY/WX    TMP DP  RH WIND       PRES   REMARKS
DENVER         CLOUDY    50  33  52 NW10      29.66R
LIMON          CLOUDY    54  32  43 N24G33    29.61R
ASPEN          LGT SNOW  32  31  96 N5        29.97R FOG     WCI  27
LARAMIE        CLOUDY    32  20  61 VRB3      29.80S
CASPER         CLOUDY    38  16  40 W14       29.77R WCI  30
CHEYENNE       CLOUDY    43  24  47 W25G40    29.67R
SCOTTSBLUFF    CLOUDY    52  32  46 W17G31    29.64R
GRAND ISLAND   CLOUDY    67  62  84 S24G32    29.53F
OMAHA          LGT RAIN  65  59  81 S18G25    29.65F
SIOUX FALLS    PTCLDY    66  58  75 S20G32    29.53F
PIERRE         PTCLDY    60  53  77 S9        29.39R
RAPID CITY     CLOUDY    53  41  63 N20       29.51F
BISMARCK       CLEAR     61  34  36 W14       29.34R
KANSAS CITY    CLEAR     63  57  81 S20G29    29.82F
HILL CITY      CLEAR     68  59  73 S25G41    29.53S
WICHITA        MOCLDY    68  63  84 S24G35    29.75F
DODGE CITY     CLEAR     65  58  78 S23G33    29.64F
OKLAHOMA CITY  CLOUDY    69  64  84 S22G30    29.82F
DALLAS         CLOUDY    74  68  81 S10       29.90S
AMARILLO       PTCLDY    61  58  90 S20       29.78S
$$




USA.gov is the U.S. government's official web portal to all federal, state and local government web resources and services.